Location: Capelle
(50.3413°N, 1.9974°E)
Time: 19:39:54
(UTC+00:00)

Resurs 01 Rocket - Pass Details

Date: 12 April 2026
Orbit: 626 x 636 km, 97.7° (Epoch: 12 May)

Event Time Altitude Azimuth Distance (km) Brightness Sun altitude
Rises 19:22:37 0° 191° (SSW) 2,913 4.9 -7.0°
Reaches altitude 10° 19:25:01 10° 202° (SSW) 2,009 4.2 -7.3°
Maximum altitude 19:28:55 31° 265° (W) 1,112 3.6 -7.9°
Drops below altitude 10° 19:32:50 10° 328° (NNW) 2,018 5.2 -8.5°
Sets 19:35:15 0° 339° (NNW) 2,929 5.8 -8.8°
